Meteo Giornale » Osservazioni meteo Francia » Parigi-Le Bourget
ore: 04:00 - Osservazioni Meteo Parigi-Le Bourget
Lat. 48° 58' N Lon. 2° 27' E Alt. 66 metri s.l.m.
14 °C
Sereno
Temp. 24 Ore
14 °C
25 °C
Nord
1.8 Km/h
Dew point 12 °C
Umidità 87 %
Visibilità 10 Km
Il sole sorge alle ore 07:08
Il sole tramonta alle ore 20:31
| Data e Ora | Cielo e Fenomeni | T °C | DP °C | Um. % | Pres. hPa | Vis. km | Vento km/h | |
|---|---|---|---|---|---|---|---|---|
| Oggi h: 04:00 | Sereno | 14 | 12 | 87 | 1022 | 10 | N 1.8 | |
| Oggi h: 03:30 | Sereno | 15 | 12 | 82 | 1022 | 10 | N 1.8 | |
| Oggi h: 03:00 | Sereno | 15 | 12 | 82 | 1022 | 10 | N 5.5 | |
| Oggi h: 02:30 | Sereno | 15 | 12 | 82 | 1022 | 10 | N 5.5 | |
| Oggi h: 02:00 | Sereno | 15 | 12 | 82 | 1022 | 10 | N 3.7 | |
| Oggi h: 01:30 | Sereno | 15 | 12 | 82 | 1022 | 10 | N 3.7 | |
| Oggi h: 01:00 | Sereno | 16 | 12 | 77 | 1022 | 10 | N 5.5 | |
| Oggi h: 00:30 | Sereno | 16 | 12 | 77 | 1022 | 10 | N 0 | |
| Oggi h: 00:00 | Sereno | 17 | 12 | 72 | 1022 | 10 | N 5.5 | |
| Ieri h: 23:30 | Sereno | 17 | 12 | 72 | 1022 | 10 | N 7.4 | |
| Ieri h: 23:00 | Sereno | 18 | 12 | 67 | 1022 | 10 | N 9.3 | |
| Ieri h: 22:30 | Sereno | 18 | 11 | 63 | 1022 | 10 | N 7.4 | |
| Ieri h: 22:00 | Sereno | 19 | 11 | 59 | 1022 | 10 | N/NO 9.3 | |
| Ieri h: 21:30 | Sereno | 20 | 11 | 56 | 1021 | 10 | N/NO 9.3 | |
| Ieri h: 21:00 | Sereno | 20 | 10 | 52 | 1021 | 10 | N/NO 7.4 | |
| Ieri h: 20:30 | Sereno | 21 | 10 | 49 | 1021 | 10 | N/NO 9.3 | |
| Ieri h: 20:00 | Sereno | 23 | 10 | 43 | 1021 | 10 | N/NO 9.3 | |
| Ieri h: 19:30 | Sereno | 24 | 9 | 38 | 1021 | 10 | O/NO 7.4 | |
| Ieri h: 19:00 | Sereno | 24 | 9 | 38 | 1021 | 10 | N/NO 7.4 | |
| Ieri h: 18:30 | Sereno | 24 | 9 | 38 | 1021 | 10 | NO 7.4 | |
| Ieri h: 18:00 | Sereno | 24 | 8 | 35 | 1021 | 10 | O/NO 11.1 | |
| Ieri h: 17:30 | Sereno | 25 | 9 | 36 | 1021 | 10 | N 7.4 | |
| Ieri h: 17:00 | Sereno | 24 | 9 | 38 | 1021 | 10 | O 13 | |
| Ieri h: 16:30 | Sereno | 24 | 9 | 38 | 1021 | 10 | N 5.5 | |
| Ieri h: 16:00 | Sereno | 24 | 10 | 41 | 1021 | 10 | S/SO 9.3 | |
| Ieri h: 15:30 | Sereno | 24 | 9 | 38 | 1021 | 10 | O 11.1 | |
| Ieri h: 15:00 | Sereno | 24 | 10 | 41 | 1022 | 10 | N 9.3 | |
| Ieri h: 14:30 | Sereno | 23 | 10 | 43 | 1022 | 10 | O/SO 11.1 | |
| Ieri h: 14:00 | Nuvoloso | 23 | 10 | 43 | 1022 | 10 | N/NO 11.1 | |
| Ieri h: 13:30 | Nuvoloso | 22 | 10 | 46 | 1022 | 10 | N 9.3 | |
| Ieri h: 13:00 | Sereno | 22 | 10 | 46 | 1022 | 10 | S/SO 11.1 | |
| Ieri h: 12:30 | Poco Nuvoloso | 20 | 10 | 52 | 1023 | 10 | O 11.1 | |
| Ieri h: 12:00 | Nuvoloso | 20 | 11 | 56 | 1023 | 10 | O/NO 13 | |
| Ieri h: 11:30 | Nuvoloso | 20 | 11 | 56 | 1023 | 10 | O 9.3 | |
| Ieri h: 11:00 | Poco Nuvoloso | 19 | 11 | 59 | 1023 | 10 | O 11.1 | |
| Ieri h: 10:30 | Sereno | 19 | 13 | 68 | 1022 | 10 | O/SO 9.3 | |
| Ieri h: 10:00 | Sereno | 18 | 13 | 72 | 1022 | 10 | O 9.3 | |
| Ieri h: 09:30 | Sereno | 17 | 13 | 77 | 1022 | 10 | O 7.4 | |
| Ieri h: 09:00 | Sereno | 15 | 13 | 87 | 1022 | 10 | N 5.5 | |
| Ieri h: 08:30 | Sereno | 15 | 13 | 87 | 1022 | 10 | N 5.5 | |
| Ieri h: 08:00 | Sereno | 14 | 12 | 87 | 1022 | 10 | N 3.7 | |
| Ieri h: 07:30 | Sereno | 14 | 13 | 93 | 1022 | 10 | N 3.7 | |
| Ieri h: 07:00 | Sereno | 14 | 12 | 87 | 1021 | 10 | N 3.7 | |
| Ieri h: 06:30 | Sereno | 14 | 12 | 87 | 1021 | 10 | N 3.7 | |
| Ieri h: 06:00 | Sereno | 14 | 12 | 87 | 1021 | 10 | N 3.7 | |
| Ieri h: 05:30 | Sereno | 15 | 13 | 87 | 1021 | 10 | N 5.5 | |
| Ieri h: 05:00 | Sereno | 15 | 13 | 87 | 1021 | 10 | SO 7.4 | |



